Regional Weather Roundup
Issued by NWS

Home | Current Version | Previous Version | Text Only | Print | Product List | Glossary On
Versions: 1 2 3 4 5 6 7 8 9 10 11 12 13 14 15 16 17 18 19 20 21 22 23 24 25 26 27 28 29 30 31 32 33 34 35 36 37 38 39 40 41 42 43 44 45 46 47 48 49 50
000
ASUS43 KDMX 202306
RWRIA

WEATHER ROUNDUP FOR IOWA
NATIONAL WEATHER SERVICE DES MOINES IA
500 PM CST SAT JAN 20 2018

NOTE: "FAIR" INDICATES FEW OR NO CLOUDS BELOW 12,000 FEET WITH NO
SIGNIFICANT WEATHER AND/OR OBSTRUCTIONS TO VISIBILITY.

* - THESE STATIONS ARE NOT NWS STATIONS...THUS NOT UNDER NWS
QUALITY CONTROL.  THEY ALSO DO NOT REPORT WEATHER SUCH
AS PRECIPITATION OR FOG.

IAZ001>003-012>014-020>022-031>034-043>046-210000-
   NORTHWEST IOWA

CITY           SKY/WX    TMP DP  RH WIND       PRES   REMARKS
CARROLL *      CLEAR     45  36  70 E6        29.85R
CHEROKEE *     CLEAR     47  32  55 NE3       29.86R
DENISON *      CLEAR     46  34  61 E5        29.86R
LE MARS *      CLOUDY    45  34  65 N10       29.87R
ORANGE CITY *  CLOUDY    45  36  70 N8        29.87S
SHELDON *      PTCLDY    41  36  81 N9        29.87R
SIOUX CITY     CLEAR     49  34  56 N10       29.85R
SPENCER        CLEAR     41  31  67 N9        29.88R
STORM LAKE *   CLEAR     45  32  61 NE7       29.85R
$$

IAZ055>058-069>071-079>083-090>094-210000-
   SOUTHWEST IOWA

CITY           SKY/WX    TMP DP  RH WIND       PRES   REMARKS
ATLANTIC *     CLEAR     43  39  87 S5        29.85R
AUDUBON *      CLEAR     43  37  81 CALM      29.87R
CLARINDA *     CLOUDY    45  43  93 N5          N/A
COUNCIL BLFS * CLEAR     43  43 100 E3        29.84R
CRESTON *      CLOUDY    45  39  81 E3        29.86S
HARLAN  *      CLEAR     45  37  76 CALM      29.88R
LAMONI         CLOUDY    47  41  80 E6        29.86R
RED OAK *      CLOUDY    45  41  87 CALM      29.85R
SHENANDOAH *   CLOUDY    43  41  93 NE7       29.85R
$$

IAZ047>049-059>061-072>074-084-210000-
   CENTRAL IOWA

CITY           SKY/WX    TMP DP  RH WIND       PRES   REMARKS
AMES           CLEAR     45  34  65 CALM      29.87S
ANKENY *       CLEAR     43  37  81 CALM      29.88F
BOONE *        CLEAR     43  36  75 E5        29.85S
CHARITON *     CLOUDY    45  39  81 NE5       29.87S
DES MOINES     PTCLDY    44  37  76 CALM      29.87F
GRINNELL*      CLEAR     40  36  84 S5        29.90R
KNOXVILLE *    CLOUDY    45  37  76 NE3       29.87S
MARSHALLTOWN   CLEAR     43  33  68 S6        29.88R
NEWTON *       CLEAR     41  36  81 S3        29.88S
PELLA *        MOCLDY    42  37  82 CALM      29.90R
PERRY *          N/A     42  37  82 S9        29.86S
$$

IAZ004>006-015-016-023>025-035-036-210000-
   NORTH CENTRAL IOWA

CITY           SKY/WX    TMP DP  RH WIND       PRES   REMARKS
ALGONA *       CLEAR     41 N/A N/A N6        29.88R
CLARION *      CLEAR     46  39  76 E6        29.87R
ESTHERVILLE    PTCLDY    38  34  85 N8        29.88R WCI  32
FORT DODGE *   CLEAR     41  34  76 E6        29.87R
MASON CITY     CLEAR     42  34  73 NE8       29.89R
FOREST CITY *    N/A     41  34  75 N6        29.88R
WEBSTER CITY * CLEAR     43  37  81 SE7       29.85R
IOWA FALLS *     N/A     44  37  77 SE3       29.89R
$$

IAZ007>011-017>019-026>030-037>042-050>054-066-210000-
   NORTHEAST IOWA

CITY           SKY/WX    TMP DP  RH WIND       PRES   REMARKS
CEDAR RAPIDS     N/A     40  35  83 SW6       29.91R
CHARLES CITY *   N/A     45  36  70 NE5       29.89R
CLINTON *        N/A     37  34  89 SW8       29.93R WCI  31
DECORAH *        N/A     46  34  61 N5        29.88R
DUBUQUE          N/A     39  31  72 SE7       29.90R WCI  34
MONTICELLO *     N/A     41  32  70 CALM      29.91R
OELWEIN *        N/A     41  37  87 S9        29.90R
WATERLOO         N/A     43  33  68 SE6       29.88R
$$

IAZ064-065-067-068-078-210000-
   EAST CENTRAL IOWA

CITY           SKY/WX    TMP DP  RH WIND       PRES   REMARKS
DAVENPORT      CLOUDY    43  36  76 SW7       29.94S
IOWA CITY      CLOUDY    43  36  76 S3        29.93S
MT. PLEASANT * CLOUDY    41  37  87 E6        29.93R
MUSCATINE *    CLOUDY    43  37  81 SE3       29.93F
QUAD CITIES    CLOUDY    43  37  79 SE3       29.92S
$$

IAZ062-063-075>077-085>089-095>099-210000-
   SOUTHEAST IOWA

CITY           SKY/WX    TMP DP  RH WIND       PRES   REMARKS
BURLINGTON     CLOUDY    44  38  79 NE3       29.93R
FAIRFIELD *    CLOUDY    43  37  81 E6        29.90S
FORT MADISON * CLOUDY    45  41  87 SE3       29.94R
KEOKUK *       CLOUDY    48  43  81 E3        29.92R
OSKALOOSA *    CLOUDY    42  37  83 S3        29.90R
OTTUMWA        CLOUDY    45  38  76 E6        29.89S
WASHINGTON *   CLOUDY    41  41 100 E7        29.93R
$$

ABBREVIATIONS USED IN REMARKS
   TC - TEMPERATURES IN CELSIUS
  WCI - WIND CHILL INDEX
   HX - HEAT INDEX
  VSB - VISIBILITY
$$





USA.gov is the U.S. government's official web portal to all federal, state and local government web resources and services.